TimeHST,TemperatureF,Dew PointF,Humidity,Sea Level PressureIn,VisibilityMPH,Wind Direction,Wind SpeedMPH,Gust SpeedMPH,PrecipitationIn,Events,Conditions,WindDirDegrees,DateUTC
12:38 AM,-9999,-9999,N/A,29.90,10.0,SE,8.1,-,N/A,,Overcast,130,2013-01-15 10:38:00
12:53 AM,-9999,-9999,N/A,29.91,10.0,SSE,5.8,-,N/A,,Overcast,160,2013-01-15 10:53:00
1:02 AM,-9999,-9999,N/A,29.90,10.0,SSE,5.8,-,N/A,,Overcast,160,2013-01-15 11:02:00
1:13 AM,-9999,-9999,N/A,29.90,10.0,South,9.2,-,N/A,,Overcast,180,2013-01-15 11:13:00
1:43 AM,-9999,-9999,N/A,29.89,10.0,West,10.4,-,N/A,,Overcast,280,2013-01-15 11:43:00
1:53 AM,-9999,-9999,N/A,29.90,10.0,West,10.4,-,N/A,,Overcast,280,2013-01-15 11:53:00
2:13 AM,-9999,-9999,N/A,29.88,10.0,West,8.1,-,N/A,,Overcast,280,2013-01-15 12:13:00
2:48 AM,-9999,-9999,N/A,29.88,10.0,WNW,8.1,-,N/A,,Overcast,300,2013-01-15 12:48:00
2:53 AM,-9999,-9999,N/A,29.89,10.0,WNW,9.2,-,N/A,,Overcast,300,2013-01-15 12:53:00
3:23 AM,-9999,-9999,N/A,29.88,10.0,East,4.6,-,0.00,,Overcast,90,2013-01-15 13:23:00
3:50 AM,-9999,-9999,N/A,29.88,10.0,ENE,9.2,-,0.00,,Overcast,60,2013-01-15 13:50:00
3:53 AM,-9999,-9999,N/A,29.89,10.0,NE,9.2,-,0.00,,Overcast,50,2013-01-15 13:53:00
4:00 AM,-9999,-9999,N/A,29.88,10.0,NE,10.4,-,0.01,,Overcast,40,2013-01-15 14:00:00
4:53 AM,-9999,-9999,N/A,29.90,10.0,NE,4.6,-,0.02,,Overcast,50,2013-01-15 14:53:00
5:53 AM,71.6,68.0,88,29.89,10.0,Calm,Calm,-,0.00,Rain,Light Rain,0,2013-01-15 15:53:00
6:53 AM,71.6,69.1,92,29.92,10.0,Calm,Calm,-,N/A,,Overcast,0,2013-01-15 16:53:00
7:53 AM,71.6,68.0,88,29.93,10.0,Calm,Calm,-,0.01,,Overcast,0,2013-01-15 17:53:00
8:33 AM,71.6,69.8,94,29.93,10.0,WNW,4.6,-,N/A,,Overcast,300,2013-01-15 18:33:00
8:53 AM,73.4,69.1,86,29.94,10.0,West,3.5,-,N/A,,Mostly Cloudy,280,2013-01-15 18:53:00
9:32 AM,73.4,66.2,78,29.94,10.0,West,6.9,-,N/A,,Overcast,270,2013-01-15 19:32:00
9:43 AM,73.4,66.2,78,29.94,10.0,NW,4.6,-,N/A,,Overcast,320,2013-01-15 19:43:00
10:15 AM,75.2,68.0,78,29.93,10.0,NW,5.8,-,N/A,,Mostly Cloudy,320,2013-01-15 20:15:00
10:53 AM,75.2,68.7,80,29.94,10.0,NNW,8.1,-,N/A,,Mostly Cloudy,330,2013-01-15 20:53:00
11:53 AM,77.0,68.7,75,29.90,10.0,WNW,9.2,-,N/A,,Mostly Cloudy,290,2013-01-15 21:53:00
11:55 AM,78.8,68.0,69,29.89,10.0,WNW,9.2,-,N/A,,Scattered Clouds,300,2013-01-15 21:55:00
12:53 PM,78.8,68.0,69,29.87,10.0,West,8.1,-,N/A,,Clear,260,2013-01-15 22:53:00
1:53 PM,78.8,68.0,69,29.86,10.0,West,8.1,-,N/A,,Scattered Clouds,270,2013-01-15 23:53:00
2:53 PM,78.8,66.9,67,29.86,10.0,WNW,8.1,-,N/A,,Clear,290,2013-01-16 00:53:00
3:53 PM,78.8,68.0,69,29.86,10.0,WNW,6.9,-,N/A,,Mostly Cloudy,290,2013-01-16 01:53:00
4:53 PM,78.8,68.0,69,29.88,10.0,NW,9.2,-,N/A,,Overcast,310,2013-01-16 02:53:00
5:14 PM,77.0,68.0,74,29.88,10.0,NW,6.9,-,N/A,,Overcast,320,2013-01-16 03:14:00
5:32 PM,77.0,68.0,74,29.88,10.0,Variable,4.6,-,N/A,,Overcast,0,2013-01-16 03:32:00
5:53 PM,77.0,68.0,74,29.89,10.0,West,4.6,-,N/A,,Overcast,280,2013-01-16 03:53:00
6:53 PM,-9999,-9999,N/A,29.91,10.0,WSW,4.6,-,N/A,,Overcast,250,2013-01-16 04:53:00
7:53 PM,-9999,-9999,N/A,29.93,10.0,Calm,Calm,-,N/A,,Overcast,0,2013-01-16 05:53:00
8:53 PM,-9999,-9999,N/A,29.94,10.0,West,5.8,-,N/A,,Mostly Cloudy,270,2013-01-16 06:53:00
9:07 PM,-9999,-9999,N/A,29.93,10.0,West,4.6,-,N/A,,Mostly Cloudy,270,2013-01-16 07:07:00
9:53 PM,-9999,-9999,N/A,29.93,10.0,Calm,Calm,-,N/A,,Overcast,0,2013-01-16 07:53:00
10:08 PM,-9999,-9999,N/A,29.92,10.0,West,3.5,-,N/A,,Overcast,270,2013-01-16 08:08:00
10:19 PM,-9999,-9999,N/A,29.92,10.0,West,5.8,-,N/A,,Overcast,260,2013-01-16 08:19:00
10:53 PM,-9999,-9999,N/A,29.92,10.0,North,3.5,-,N/A,,Overcast,10,2013-01-16 08:53:00
11:03 PM,-9999,-9999,N/A,29.92,10.0,NE,4.6,-,N/A,,Overcast,50,2013-01-16 09:03:00
11:29 PM,-9999,-9999,N/A,29.91,10.0,Calm,Calm,-,0.00,,Overcast,0,2013-01-16 09:29:00
11:53 PM,-9999,-9999,N/A,29.92,10.0,Calm,Calm,-,0.00,,Mostly Cloudy,0,2013-01-16 09:53:00